Location: *
(46.3500°N, 10.9000°E)
Time: 12:38:11
(UTC+00:00)

Explorer 11/Cluster Stage 4 - All Passes

Search period start: 18 April 2021 00:00
Search period end: 28 April 2021 00:00
Orbit: 467 x 1257 km, 28.8° (Epoch: 17 April)

Date Brightness Start Highest point End Pass type
(mag) Time Alt. Az. Time Alt. Az. Time Alt. Az.
18 Apr - 08:52:15 10° SSW 08:54:23 12° S 08:56:42 10° SSE daylight
18 Apr - 10:40:20 10° SSW 10:41:58 11° S 10:43:41 10° S daylight
19 Apr - 08:41:43 10° SSW 08:43:15 11° S 08:44:53 10° SSE daylight
